User: anonymous   Login
Location: *
(50.9167°S, 179.4000°W)
Time: 17:33:43
(UTC+00:00)
Language:

COSMOS 2428 - Orbit

View from above orbital plane
View from above orbital plane
View from above satellite
View from above satellite

Ground track
Ground track

The orbit data is extracted from the following two-line orbital elements,

1 31792U 07029A   24148.94847947 -.00000178  00000-0 -69937-4 0  9997
2 31792  70.9414 129.2418 0007381  73.1718 287.0212 14.12719164872186
Epoch (UTC): 27 May 2024 22:45:48
Eccentricity: 0.0007381
inclination: 70.9414°
perigee height: 845 km
apogee height: 855 km
right ascension of ascending node: 129.2418°
argument of perigee: 73.1718°
revolutions per day: 14.12719164
mean anomaly at epoch: 287.0212°
orbit number at epoch: 87218

The dashed part of the orbit path shows where the satellite is in the earth's shadow,  

DLR